FW93366 Weather Reports


Display with metric or nautical units.
time (UTC)temp
F
wind
direction
speed
MPH
gust
MPH
rain 1hr
in
rain 24hr
in
rain mn
in
humidity
%
barometer
mb
20260906183055 73 158 9.0 22.0 0.00 0.00 0.00 26 1015.1
20260906181547 73 211 5.0 21.0 0.00 0.00 0.00 28 1015.5
20260906180107 72 153 8.0 22.0 0.00 0.00 0.00 27 1015.5
20260906174558 71 150 10.0 22.0 0.00 0.00 0.00 30 1015.6
20260906173052 71 190 8.0 25.0 0.00 0.00 0.00 29 1015.8
20260906171606 70 157 6.0 18.0 0.00 0.00 0.00 29 1015.8
20260906170109 69 155 4.0 10.0 0.00 0.00 0.00 32 1015.9
20260906164559 68 206 2.0 9.0 0.00 0.00 0.00 38 1016.3
20260906163101 67 250 2.0 10.0 0.00 0.00 0.00 38 1016.4
20260906161559 64 0 1.0 3.0 0.00 0.00 0.00 43 1016.5
20260906160053 63 244 0.0 4.0 0.00 0.00 0.00 46 1016.7
20260906154600 62 292 1.0 4.0 0.00 0.00 0.00 48 1016.9
20260906153057 59 0 0.0 5.0 0.00 0.00 0.00 48 1017.0
20260906151601 57 0 1.0 5.0 0.00 0.00 0.00 52 1017.1
20260906150054 57 315 0.0 2.0 0.00 0.00 0.00 51 1017.0
20260906144552 56 0 0.0 1.0 0.00 0.00 0.00 51 1016.8
20260906143049 55 0 0.0 2.0 0.00 0.00 0.00 52 1016.5
20260906141545 55 0 0.0 3.0 0.00 0.00 0.00 48 1016.4
20260906140055 58 0 0.0 10.0 0.00 0.00 0.00 44 1016.4
20260906134551 60 197 6.0 14.0 0.00 0.00 0.00 41 1016.1
20260906133050 61 204 8.0 18.0 0.00 0.00 0.00 39 1016.0
20260906131547 61 173 7.0 18.0 0.00 0.00 0.00 39 1015.9
20260906130056 61 185 7.0 17.0 0.00 0.00 0.00 39 1015.9
20260906124553 61 142 5.0 13.0 0.00 0.00 0.00 38 1015.9
20260906123051 61 152 4.0 13.0 0.00 0.00 0.00 39 1015.9
20260906121553 61 171 3.0 10.0 0.00 0.00 0.00 39 1016.0
20260906120110 61 174 2.0 11.0 0.00 0.00 0.00 38 1016.0
20260906114548 61 173 4.0 11.0 0.00 0.00 0.00 38 1016.2
20260906113054 61 166 3.0 7.0 0.00 0.00 0.00 37 1016.2
20260906111604 62 153 4.0 16.0 0.00 0.00 0.00 37 1016.0
20260906110052 62 156 5.0 17.0 0.00 0.00 0.00 36 1016.2
20260906104549 62 114 4.0 12.0 0.00 0.00 0.00 37 1016.1
20260906103047 62 157 6.0 15.0 0.00 0.00 0.00 36 1016.2
20260906101546 63 132 4.0 12.0 0.00 0.00 0.00 37 1016.3
20260906100053 63 189 7.0 22.0 0.00 0.00 0.00 36 1016.2
20260906094553 62 157 4.0 17.0 0.00 0.00 0.00 37 1016.3
20260906093054 62 174 6.0 12.0 0.00 0.00 0.00 39 1016.4
20260906091553 62 146 6.0 14.0 0.00 0.00 0.00 40 1016.4
20260906090056 60 194 5.0 11.0 0.00 0.00 0.00 43 1016.5
20260906084556 61 155 1.0 8.0 0.00 0.00 0.00 42 1016.6
20260906083100 62 201 5.0 13.0 0.00 0.00 0.00 40 1016.5
20260906081550 61 165 5.0 11.0 0.00 0.00 0.00 42 1016.5
20260906080059 58 218 2.0 6.0 0.00 0.00 0.00 46 1016.6
20260906074551 57 360 2.0 11.0 0.00 0.00 0.00 46 1016.6
20260906073055 59 0 0.0 3.0 0.00 0.00 0.00 44 1016.6
20260906071559 60 172 3.0 12.0 0.00 0.00 0.00 42 1016.6
20260906070059 61 173 1.0 7.0 0.00 0.00 0.00 41 1016.6
20260906064552 61 172 4.0 9.0 0.00 0.00 0.00 40 1016.3
20260906063055 60 164 2.0 9.0 0.00 0.00 0.00 42 1016.4
20260906061548 62 188 3.0 8.0 0.00 0.00 0.00 40 1016.4
20260906060058 65 212 4.0 17.0 0.00 0.00 0.00 35 1016.4
20260906054552 65 207 7.0 16.0 0.00 0.00 0.00 34 1016.4
20260906053051 64 191 8.0 18.0 0.00 0.00 0.00 34 1016.4
20260906051546 65 178 7.0 17.0 0.00 0.00 0.00 34 1016.3
20260906050059 65 165 7.0 22.0 0.00 0.00 0.00 36 1016.3
20260906044553 65 163 10.0 20.0 0.00 0.00 0.00 35 1016.1
20260906043055 65 170 12.0 26.0 0.00 0.00 0.00 36 1016.2
20260906041602 65 172 10.0 18.0 0.00 0.00 0.00 39 1015.9
20260906040051 64 175 8.0 17.0 0.00 0.00 0.00 41 1015.9
20260906034557 65 183 8.0 15.0 0.00 0.00 0.00 42 1015.7
20260906033045 64 184 9.0 15.0 0.00 0.00 0.00 42 1015.6
20260906031556 64 209 6.0 14.0 0.00 0.00 0.00 43 1015.4
20260906030053 64 167 5.0 12.0 0.00 0.00 0.00 43 1015.3
20260906024559 66 204 7.0 16.0 0.00 0.00 0.00 39 1015.1
20260906023048 66 126 9.0 20.0 0.00 0.00 0.00 36 1015.1
20260906021559 67 168 8.0 20.0 0.00 0.00 0.00 37 1015.3
20260906020055 68 156 8.0 18.0 0.00 0.00 0.00 36 1015.3
20260906014600 69 169 4.0 11.0 0.00 0.00 0.00 35 1015.6
20260906013051 70 133 5.0 16.0 0.00 0.00 0.00 33 1015.6
20260906011548 71 190 4.0 15.0 0.00 0.00 0.00 34 1015.6
20260906010047 72 179 5.0 17.0 0.00 0.00 0.00 33 1015.6
20260906004600 72 153 3.0 17.0 0.00 0.00 0.00 33 1015.6
20260906003108 72 180 6.0 18.0 0.00 0.00 0.00 31 1015.6
20260906001549 73 163 6.0 17.0 0.00 0.00 0.00 31 1015.6
20260906000104 73 144 5.0 22.0 0.00 0.00 0.00 31 1015.2
20260905234603 72 147 9.0 21.0 0.00 0.00 0.00 30 1015.2
20260905233046 73 172 7.0 17.0 0.00 0.00 0.00 31 1015.0
20260905231546 72 162 9.0 21.0 0.00 0.00 0.00 32 1015.1
20260905230053 72 169 10.0 23.0 0.00 0.00 0.00 30 1015.1
20260905224549 73 143 10.0 24.0 0.00 0.00 0.00 29 1015.2
20260905223057 74 197 11.0 20.0 0.00 0.00 0.00 29 1015.3
20260905221547 73 171 11.0 24.0 0.00 0.00 0.00 29 1015.5
20260905220100 74 193 7.0 17.0 0.00 0.00 0.00 29 1015.6
20260905214552 73 190 10.0 19.0 0.00 0.00 0.00 27 1015.6
20260905213047 73 209 8.0 19.0 0.00 0.00 0.00 28 1015.5
20260905211547 72 254 9.0 23.0 0.00 0.00 0.00 27 1015.6
20260905210055 73 196 8.0 20.0 0.00 0.00 0.00 27 1015.7
20260905204559 72 182 6.0 16.0 0.00 0.00 0.00 29 1015.7
20260905203059 72 163 10.0 26.0 0.00 0.00 0.00 29 1015.7
20260905201555 72 238 9.0 20.0 0.00 0.00 0.00 30 1015.8
20260905200105 72 211 11.0 24.0 0.00 0.00 0.00 30 1015.6
20260905194551 71 188 10.0 27.0 0.00 0.00 0.00 32 1015.8
20260905193106 71 232 11.0 25.0 0.00 0.00 0.00 31 1015.9
20260905191600 71 198 9.0 21.0 0.00 0.00 0.00 32 1016.1
20260905184558 70 196 6.0 16.0 0.00 0.00 0.00 33 1016.5